Hourly Data Report for October 04, 2017

All times are specified in Local Standard Time (LST). Add 1 hour to adjust for Daylight Saving Time where and when it is observed.

BAKER LAKE A
NUNAVUT

64°17'56.000" N
96°04'40.000" W
18.60 m
2300503
71926
YBK

Download Data

Hourly Data (October 2017)
Hourly Data Report for October 4, 2017
Temp Definition
°C
Dew Point Temp Definition
°C
Rel Hum Definition
%
Wind Dir Definition
10's deg

Wind Spd Definition
km/h
Visibility Definition
km
Stn Press Definition
kPa
Hmdx Definition


Wind Chill Definition


Weather Definition


TIME
00:00 Legend Double Dagger -4.2 -7.3 79 31 32 24.1 100.55   -12 Snow
01:00 Legend Double Dagger -4.8 -9.3 71 32 31 24.1 100.56   -13 LegendNANA
02:00 Legend Double Dagger -5.0 -8.5 76 32 32 24.1 100.56   -13 LegendNANA
03:00 Legend Double Dagger -5.1 -9.9 69 31 36 24.1 100.53   -14 Cloudy
04:00 Legend Double Dagger -5.1 -9.9 69 31 45 24.1 100.51   -15 Snow,Blowing Snow
05:00 Legend Double Dagger -4.8 -9.1 72 31 37 24.1 100.48   -14 Snow,Blowing Snow
06:00 Legend Double Dagger -4.6 -9.4 69 30 41 24.1 100.46   -14 Snow,Blowing Snow
07:00 Legend Double Dagger -4.3 -8.6 72 31 36 24.1 100.41   -13 Snow
08:00 Legend Double Dagger -4.2 -7.7 77 30 36 4.8 100.34   -13 Snow,Blowing Snow
09:00 Legend Double Dagger -4.1 -7.7 76 31 40 24.1 100.30   -13 Snow,Blowing Snow
10:00 Legend Double Dagger -4.0 -8.3 72 31 51 24.1 100.24   -14 Snow,Blowing Snow
11:00 Legend Double Dagger -3.7 -7.6 74 30 53 24.1 100.20   -13 Snow
12:00 Legend Double Dagger -3.0 -7.2 73 30 47 32.2 100.18   -12 Mostly Cloudy
13:00 Legend Double Dagger -2.6 -7.3 70 30 55 40.2 100.12   -12 LegendNANA
14:00 Legend Double Dagger -2.7 -7.0 73 30 52 32.2 100.09   -12 LegendNANA
15:00 Legend Double Dagger -3.1 -7.2 74 30 50 40.2 100.14   -12 Cloudy
16:00 Legend Double Dagger -3.5 -6.6 79 29 52 8.1 100.03   -13 Snow,Blowing Snow
17:00 Legend Double Dagger -3.6 -6.4 81 30 47 4.8 100.02   -13 Snow,Blowing Snow
18:00 Legend Double Dagger -3.9 -6.8 80 30 50 9.7 99.99   -13 Snow,Blowing Snow
19:00 Legend Double Dagger -3.8 -7.2 78 31 53 12.9 99.92   -14 Snow,Blowing Snow
20:00 Legend Double Dagger -4.0 -7.5 77 31 61 24.1 99.95   -14 Snow
21:00 Legend Double Dagger -4.0 -7.0 80 30 45 16.1 99.90   -13 Snow
22:00 Legend Double Dagger -4.1 -7.1 80 30 54 9.7 99.87   -14 Snow,Blowing Snow
23:00 Legend Double Dagger -4.4 -7.6 79 30 53 16.1 99.82   -14 Snow,Blowing Snow

Notes on Data Quality.

Legend

  • E = Estimated
  • M = Missing
  • NA = Not Available
  • ‡ = Partner data that is not subject to review by the National Climate Archives
Date modified: